Wind_Speed
18 15 12 9 7 5 3 1 3 6 9 11 13 16 18 20 22 23 25 28 31 34 38 41 40 39 37 35 35 35 33 33
19 15 14 12 8 4 1 3 5 6 7 10 14 17 19 19 21 24 26 29 31 35 39 39 37 35 33 30 29 31 31 28
22 18 15 11 7 4 2 4 7 8 10 12 15 18 19 19 21 24 26 28 31 35 38 36 33 32 28 25 24 26 24 19
27 23 18 12 8 4 3 5 8 8 10 13 15 16 17 17 19 23 26 27 30 35 34 30 30 28 25 23 21 20 25 24
29 25 22 15 10 6 4 6 7 9 12 15 17 18 19 21 23 24 25 26 26 31 32 28 26 24 22 20 18 19 19 21
34 28 22 16 11 7 5 8 11 11 13 15 17 17 17 19 21 23 23 23 25 29 30 27 25 23 21 19 16 14 16 19
34 27 23 18 14 8 6 8 11 11 12 14 15 15 17 18 21 21 22 23 25 28 29 27 25 24 21 19 17 15 16 17
36 32 28 22 15 10 8 8 11 11 12 14 14 14 16 18 20 21 22 23 24 26 28 27 26 23 20 19 17 16 15 16
36 32 27 22 15 15 11 11 10 10 12 13 13 13 15 16 18 19 19 21 21 23 24 24 24 23 21 19 17 17 15 15
36 31 28 22 20 16 13 12 11 10 11 12 11 12 13 14 16 17 18 19 18 19 22 22 22 22 20 19 18 18 17 15
35 32 30 24 22 18 18 13 12 11 10 10 11 11 12 13 14 15 16 16 16 17 19 20 20 20 20 19 19 19 18 17
36 35 30 27 23 21 18 14 13 11 10 10 10 11 10 10 12 14 14 15 15 16 18 19 20 19 18 17 18 20 22 21
36 34 32 30 26 22 18 15 13 12 10 9 10 9 8 9 10 10 11 12 13 14 16 18 20 20 19 17 17 19 21 26
36 35 33 31 26 23 20 17 14 11 11 10 10 7 6 7 7 8 9 10 10 12 13 16 18 20 20 19 18 19 19 21
38 35 34 31 28 25 20 16 13 14 14 12 9 6 5 4 4 5 7 8 9 10 12 13 15 17 20 19 18 19 20 22
36 38 36 33 30 26 21 17 16 16 14 11 7 5 4 2 2 4 7 8 8 9 10 10 13 14 19 19 19 19 20 22
33 37 36 34 31 25 21 19 16 15 13 9 7 5 4 2 1 3 6 7 8 8 8 9 11 14 16 17 18 19 21 23
29 31 32 34 30 23 20 17 16 15 12 10 8 7 6 5 3 3 4 5 7 7 9 8 10 13 14 15 16 17 19 22
23 26 28 30 25 22 19 18 17 16 14 12 10 9 9 7 5 4 2 3 4 6 8 8 9 12 13 14 14 15 17 20
Wind_Direction
177 181 181 181 175 166 179 195 7 6 355 345 341 341 340 341 340 340 339 338 338 337 335 330 324 318 314 311 307 304 302 297
183 185 184 184 174 194 282 345 338 336 327 330 334 337 340 340 342 341 340 339 338 337 333 328 324 321 321 318 314 311 309 307
185 190 188 184 190 200 267 309 318 318 326 333 338 339 341 342 341 338 338 339 337 338 335 331 331 326 321 319 322 322 322 327
186 188 186 191 196 220 281 307 309 316 327 341 339 337 337 336 336 336 337 337 340 344 341 339 338 333 328 323 322 318 310 310
189 188 189 190 200 216 270 306 325 326 336 338 337 339 341 344 344 340 339 339 340 346 352 351 344 338 334 331 323 316 315 308
192 191 188 187 207 223 271 332 331 324 325 330 335 337 342 343 339 338 339 342 347 356 359 356 351 346 342 339 335 335 326 312
192 186 188 195 206 223 263 318 312 302 315 325 331 335 340 338 338 341 345 350 354 1 4 0 356 350 349 344 339 331 329 322
186 188 193 199 207 223 244 285 292 293 311 322 328 335 337 338 342 348 352 355 1 0 6 5 2 358 352 346 341 338 331 331
188 193 198 202 212 224 234 267 281 287 304 316 325 333 336 342 349 354 355 358 6 4 4 6 8 7 5 1 357 351 344 334
189 198 205 205 220 223 237 258 265 280 295 307 320 330 339 347 353 356 358 1 7 9 6 4 12 13 14 12 11 6 358 351
193 202 206 211 217 222 235 242 262 271 282 301 316 330 342 351 356 357 1 7 12 13 11 12 13 16 16 18 23 21 15 14
198 206 207 214 217 225 229 239 256 266 281 298 314 328 337 350 353 359 3 11 12 15 15 20 22 21 19 23 28 35 34 36
202 211 209 211 217 220 227 244 256 264 274 292 302 314 328 345 349 2 7 13 16 16 19 23 27 27 26 25 30 35 41 44
208 212 211 213 216 222 232 244 252 262 268 275 282 297 316 334 345 5 14 25 19 23 23 27 32 33 32 32 34 39 42 44
217 214 213 214 220 227 234 242 250 254 253 258 269 287 299 313 355 13 30 36 31 28 30 36 39 40 42 40 39 46 48 50
225 221 214 214 220 225 229 238 243 242 243 249 254 262 268 281 27 35 44 42 39 35 35 40 46 46 48 46 49 50 54 54
227 222 218 220 222 225 231 236 238 233 234 235 240 242 246 205 163 70 57 49 48 47 46 50 54 52 48 47 48 55 57 58
228 228 223 224 224 228 234 238 235 226 224 226 226 227 220 206 186 97 72 58 53 57 55 55 59 60 53 48 45 51 58 61
221 222 224 225 224 223 226 230 225 221 220 218 217 214 211 206 192 158 120 76 64 60 61 57 55 57 50 47 46 46 55 60
Height
1515 1517 1520 1522 1523 1523 1523 1523 1524 1523 1522 1521 1520 1518 1514 1510 1507 1504 1499 1495 1490 1486 1482 1477 1471 1464 1459 1455 1450 1446 1443 1440
1514 1515 1517 1518 1520 1521 1522 1523 1523 1523 1523 1522 1519 1516 1513 1509 1504 1499 1496 1492 1487 1483 1477 1471 1465 1458 1453 1449 1445 1440 1437 1435
1511 1513 1516 1518 1519 1518 1519 1520 1522 1522 1521 1519 1517 1513 1510 1506 1502 1498 1494 1490 1486 1481 1474 1467 1460 1454 1450 1446 1442 1439 1436 1435
1506 1509 1512 1515 1518 1519 1519 1519 1519 1519 1518 1516 1514 1511 1508 1505 1501 1497 1492 1488 1483 1477 1471 1463 1457 1452 1446 1444 1441 1439 1435 1433
1503 1505 1508 1511 1514 1517 1518 1518 1517 1516 1514 1513 1511 1508 1505 1502 1498 1494 1491 1487 1482 1477 1468 1461 1456 1451 1446 1442 1439 1436 1434 1430
1495 1500 1504 1507 1510 1513 1514 1514 1514 1514 1513 1511 1508 1505 1503 1500 1497 1494 1489 1485 1480 1474 1466 1460 1455 1449 1444 1440 1437 1434 1432 1429
1493 1498 1501 1503 1506 1509 1510 1511 1513 1513 1512 1509 1506 1503 1501 1498 1495 1491 1486 1482 1477 1471 1465 1460 1455 1449 1443 1439 1435 1432 1429 1425
1488 1493 1495 1499 1502 1504 1507 1509 1510 1509 1508 1506 1504 1501 1498 1496 1492 1488 1483 1479 1474 1472 1465 1460 1454 1449 1444 1438 1434 1430 1427 1423
1484 1490 1493 1496 1499 1501 1504 1506 1506 1506 1505 1504 1502 1499 1496 1493 1490 1486 1482 1478 1474 1472 1467 1462 1456 1450 1444 1439 1434 1430 1426 1421
1481 1487 1490 1494 1497 1498 1500 1503 1503 1503 1502 1501 1499 1497 1494 1491 1488 1485 1482 1478 1475 1471 1468 1463 1457 1451 1446 1441 1435 1430 1425 1420
1477 1482 1486 1491 1493 1494 1497 1499 1500 1500 1500 1499 1497 1495 1493 1491 1488 1485 1482 1478 1475 1472 1469 1463 1459 1453 1448 1443 1437 1432 1427 1421
1472 1476 1481 1486 1489 1492 1494 1496 1497 1497 1497 1496 1495 1493 1491 1489 1487 1484 1482 1477 1475 1472 1469 1464 1460 1455 1451 1446 1440 1434 1429 1423
1468 1471 1476 1481 1484 1488 1491 1493 1494 1494 1493 1493 1492 1492 1489 1487 1485 1483 1481 1477 1475 1474 1470 1466 1461 1458 1454 1449 1443 1437 1432 1426
1466 1468 1472 1476 1480 1484 1487 1489 1490 1490 1491 1491 1490 1489 1487 1485 1486 1483 1480 1477 1476 1474 1471 1468 1464 1460 1456 1451 1447 1441 1436 1431
1461 1465 1468 1473 1477 1481 1484 1485 1486 1488 1490 1490 1490 1487 1487 1485 1485 1484 1480 1478 1477 1475 1473 1469 1466 1463 1459 1454 1450 1445 1441 1436
1456 1459 1463 1468 1473 1476 1479 1482 1484 1487 1488 1488 1487 1485 1485 1485 1485 1482 1480 1479 1478 1476 1474 1471 1468 1466 1461 1458 1454 1450 1445 1440
1449 1454 1460 1464 1467 1472 1476 1479 1481 1482 1484 1484 1485 1484 1484 1484 1484 1481 1480 1480 1479 1477 1475 1473 1470 1468 1465 1462 1458 1454 1450 1445
1444 1450 1455 1459 1464 1469 1472 1475 1478 1479 1481 1482 1482 1483 1482 1483 1483 1481 1481 1481 1480 1479 1476 1475 1472 1470 1468 1465 1462 1458 1454 1450
1443 1448 1452 1457 1462 1465 1468 1471 1474 1476 1478 1479 1480 1481 1481 1482 1481 1482 1482 1482 1481 1480 1478 1477 1475 1472 1471 1469 1466 1463 1459 1454